Regional Weather Roundup
Issued by NWS Newport/Morehead, NC

Current Version | Previous Version | Graphics & Text | Print | Product List | Glossary On
Versions: 1 2 3 4 5 6 7 8 9 10 11 12 13 14 15 16 17 18 19 20 21 22 23 24 25 26 27 28 29 30 31 32 33 34 35 36 37 38 39 40 41 42 43 44 45 46 47 48 49 50
000
ASUS42 KMHX 241525
RWRMHX
WEATHER ROUNDUP FOR EASTERN NORTH CAROLINA
NATIONAL WEATHER SERVICE NEWPORT/MOREHEAD CITY NC
1000 AM EST FRI FEB 24 2017

NOTE: "FAIR" INDICATES FEW OR NO CLOUDS BELOW 12,000 FEET
WITH NO SIGNIFICANT WEATHER AND/OR OBSTRUCTIONS TO VISIBILITY

NCZ015>017-031-032-045>047-102-103-241600-
NORTH COAST

CITY           SKY/WX    TMP DP  RH WIND       PRES   REMARKS
EDENTON        SUNNY     72  60  66 SE8       29.96F
ELIZABETH CITY CLOUDY    70  60  70 E7        29.96F
KITTY HAWK     NOT AVBL
MANTEO         SUNNY     69  59  71 E8        29.97S

$$

NCZ045>047-081-094-103-104-241600-
CENTRAL COAST

CITY           SKY/WX    TMP DP  RH WIND       PRES   REMARKS
FRISCO         SUNNY     71  58  63 SE6       29.95S HAZE

$$

NCZ095-097-098-100-101-241600-
SOUTHERN COAST

CITY           SKY/WX    TMP DP  RH WIND       PRES   REMARKS
BEAUFORT       MOSUNNY   71  62  73 E7        29.94R
CEDAR ISLAND   NOT AVBL
JACKSONVILLE   SUNNY     71  63  75 E9        29.93S
PINEY ISLAND   SUNNY    N/A N/A N/A NE14      29.95
WILMINGTON     SUNNY     72  61  68 E8        29.93R


$$

NCZ011>013-027>030-043-044-078>080-089-090>093-098-241600-
COASTAL PLAIN

CITY           SKY/WX    TMP DP  RH WIND       PRES   REMARKS
AHOSKIE          N/A     68  60  75 S6        29.96F
CLINTON        SUNNY     69  62  78 CALM      29.95S
ELIZABETHTOWN  SUNNY     70  61  71 CALM      29.94S
GOLDSBORO      SUNNY     71  65  81 NE6       29.93S
GREENVILLE     SUNNY     70  61  73 CALM      29.97S
HAVELOCK       PTSUNNY   71  61  70 NE10      29.95R
KENANSVILLE    SUNNY     72  61  68 E5        29.94S
KINSTON        SUNNY     70  61  73 NE6       29.95F
NEW BERN       MOSUNNY   70  62  76 E6        29.95S
RICHLANDS      SUNNY     71  61  70 NE7       29.94S
ROCKY MOUNT    SUNNY     66  60  81 CALM      29.96S
WASHINGTON     SUNNY     71  60  68 E8        29.95F
WHITEVILLE     SUNNY     68  59  73 NE3       29.93S

$$

AMZ130-135-150-152-154-156-158-170-250-252-270-ANZ085-086-088-633-658-670-241600-
MARINE OBSERVATIONS

STATION/POSITION TIME  TEMP    WIND        PRES    WAVE   SWELL
                       AIR SEA DIR/SP/G            HT/PER HT/PER
                 (UTC) (F)     (DEG/KT/KT) (MB)    (FT/S) (FT/S)
CHESAPEAKE LIGHT NOT AVBL
64 E VA BEACH    1450   58 54   80/  4/  6 1014.9    6/11   5/11
DUCK             1500   66 49  110/  3/  3 1014.2
2 E DUCK         1500      52                N/A     4/11   2/11
OREGON INLET     1500   63 57   40/  7/  9 1014.4
13E OREGON INLT  NOT AVBL
HATTERAS CG      1500   69 62  100/  5/  9 1013.7
DIAMOND BUOY     1450   72 74  120/ 16/ 19 1013.6    7/10   7/10
CAPE LOOKOUT     1500   65      30/  9/ 10 1013.5
BEAUFORT LAB     1500   69 61   90/  5/  9 1012.9
30 SE NEW RVR IN 1508   66      50/ 12/ 16 1013.2
30 SE NEW RVR IN 1443      70                N/A     8/11   3/11
27 SE WRIGHTSVLE 1508   66 66   40/ 14/ 21 1012.1
5 SE WRIGHTSVLE  1508   60 58   40/  8/ 14 1013.2
225 S CAPE HAT   1450   69 70   60/ 23/ 29 1007.3   13/10  10/10
41 SE CHARLESTON 1450   70 70   20/  8/ 10 1011.6   10/11  10/11

$$




USA.gov is the U.S. government's official web portal to all federal, state and local government web resources and services.